Time,TemperatureF,DewpointF,PressureIn,WindDirection,WindDirectionDegrees,WindSpeedMPH,WindSpeedGustMPH,Humidity,HourlyPrecipIn,Conditions,Clouds,dailyrainin,SoftwareType,DateUTC
2013-02-17 00:00:00,34.3,6.1,29.89,WSW,244,2.7,2.7,30,0.00,,---,0.00,VWS V13.01,2013-02-17 07:00:00,
2013-02-17 00:07:00,34.2,6.0,29.89,North,0,0.0,0.0,30,0.00,,---,0.00,VWS V13.01,2013-02-17 07:07:00,
2013-02-17 00:12:00,33.6,5.5,29.89,North,0,0.0,0.0,30,0.00,,---,0.00,VWS V13.01,2013-02-17 07:12:00,
2013-02-17 00:18:00,33.1,5.0,29.89,North,0,0.0,0.0,30,0.00,,---,0.00,VWS V13.01,2013-02-17 07:18:00,
2013-02-17 00:23:00,33.6,5.5,29.89,North,0,0.0,0.0,30,0.00,,---,0.00,VWS V13.01,2013-02-17 07:23:00,
2013-02-17 00:28:00,33.3,5.2,29.89,North,0,0.0,0.0,30,0.00,,---,0.00,VWS V13.01,2013-02-17 07:28:00,
2013-02-17 00:33:00,33.1,5.0,29.89,North,0,0.0,0.0,30,0.00,,---,0.00,VWS V13.01,2013-02-17 07:33:00,
2013-02-17 00:38:00,33.4,5.3,29.89,North,0,0.0,0.0,30,0.00,,---,0.00,VWS V13.01,2013-02-17 07:38:00,
2013-02-17 00:43:00,33.4,5.3,29.89,North,0,0.0,0.0,30,0.00,,---,0.00,VWS V13.01,2013-02-17 07:43:00,
2013-02-17 00:48:00,33.1,5.0,29.89,North,0,0.0,0.0,30,0.00,,---,0.00,VWS V13.01,2013-02-17 07:48:00,
2013-02-17 00:53:00,33.3,5.2,29.89,North,0,0.0,0.0,30,0.00,,---,0.00,VWS V13.01,2013-02-17 07:53:00,
2013-02-17 00:58:00,32.9,4.9,29.89,North,0,0.0,0.0,30,0.00,,---,0.00,VWS V13.01,2013-02-17 07:58:00,
2013-02-17 01:04:00,32.5,4.6,29.89,WSW,242,0.0,0.0,30,0.00,,---,0.00,VWS V13.01,2013-02-17 08:04:00,
2013-02-17 01:09:00,32.5,4.6,29.89,WSW,242,0.0,0.0,30,0.00,,---,0.00,VWS V13.01,2013-02-17 08:09:00,
2013-02-17 01:14:00,32.4,4.4,29.89,WSW,242,0.0,0.0,30,0.00,,---,0.00,VWS V13.01,2013-02-17 08:14:00,
2013-02-17 01:19:00,32.5,4.6,29.89,WSW,242,0.0,0.0,30,0.00,,---,0.00,VWS V13.01,2013-02-17 08:19:00,
2013-02-17 01:24:00,32.4,4.4,29.89,WSW,242,0.0,0.0,30,0.00,,---,0.00,VWS V13.01,2013-02-17 08:24:00,
2013-02-17 01:29:00,32.2,4.2,29.89,WSW,242,0.0,0.0,30,0.00,,---,0.00,VWS V13.01,2013-02-17 08:29:00,
2013-02-17 01:34:00,33.1,5.0,29.89,WSW,242,0.0,0.0,30,0.00,,---,0.00,VWS V13.01,2013-02-17 08:34:00,
2013-02-17 01:39:00,32.5,4.6,29.89,WSW,242,0.0,0.0,30,0.00,,---,0.00,VWS V13.01,2013-02-17 08:39:00,
2013-02-17 01:44:00,32.7,4.7,29.89,WSW,242,0.0,0.0,30,0.00,,---,0.00,VWS V13.01,2013-02-17 08:44:00,
2013-02-17 01:49:00,32.5,4.6,29.89,WSW,242,0.0,0.0,30,0.00,,---,0.00,VWS V13.01,2013-02-17 08:49:00,
2013-02-17 01:54:00,32.4,5.1,29.89,WSW,242,0.0,0.0,31,0.00,,---,0.00,VWS V13.01,2013-02-17 08:54:00,
2013-02-17 02:00:00,31.5,4.3,29.89,WSW,242,0.0,0.0,31,0.00,,---,0.00,VWS V13.01,2013-02-17 09:00:00,
2013-02-17 02:05:00,31.1,4.0,29.89,WSW,242,0.0,0.0,31,0.00,,---,0.00,VWS V13.01,2013-02-17 09:05:00,
2013-02-17 02:10:00,31.3,3.5,29.89,WSW,242,0.0,0.0,30,0.00,,---,0.00,VWS V13.01,2013-02-17 09:10:00,
2013-02-17 02:15:00,31.1,4.0,29.86,WSW,242,0.0,0.0,31,0.00,,---,0.00,VWS V13.01,2013-02-17 09:15:00,
2013-02-17 02:20:00,30.6,3.5,29.86,WSW,242,0.0,0.0,31,0.00,,---,0.00,VWS V13.01,2013-02-17 09:20:00,
2013-02-17 02:26:00,30.2,3.2,29.86,WSW,242,0.0,0.0,31,0.00,,---,0.00,VWS V13.01,2013-02-17 09:26:00,
2013-02-17 02:31:00,30.7,3.7,29.86,WSW,242,0.0,0.0,31,0.00,,---,0.00,VWS V13.01,2013-02-17 09:31:00,
2013-02-17 02:36:00,30.7,3.7,29.86,WSW,242,0.0,0.0,31,0.00,,---,0.00,VWS V13.01,2013-02-17 09:36:00,
2013-02-17 02:41:00,30.6,3.5,29.86,WSW,242,0.0,0.0,31,0.00,,---,0.00,VWS V13.01,2013-02-17 09:41:00,
2013-02-17 02:46:00,30.6,3.5,29.86,WSW,242,0.0,0.0,31,0.00,,---,0.00,VWS V13.01,2013-02-17 09:46:00,
2013-02-17 02:51:00,30.9,3.8,29.86,WSW,242,0.0,0.0,31,0.00,,---,0.00,VWS V13.01,2013-02-17 09:51:00,
2013-02-17 02:56:00,30.7,3.7,29.86,WSW,242,0.0,0.0,31,0.00,,---,0.00,VWS V13.01,2013-02-17 09:56:00,
2013-02-17 03:01:00,30.7,3.7,29.86,WSW,242,0.0,0.0,31,0.00,,---,0.00,VWS V13.01,2013-02-17 10:01:00,
2013-02-17 03:06:00,30.9,3.8,29.86,WSW,242,0.0,0.0,31,0.00,,---,0.00,VWS V13.01,2013-02-17 10:06:00,
2013-02-17 03:12:00,30.9,3.8,29.86,WSW,242,0.0,0.0,31,0.00,,---,0.00,VWS V13.01,2013-02-17 10:12:00,
2013-02-17 03:17:00,30.9,3.8,29.86,WSW,242,0.0,0.0,31,0.00,,---,0.00,VWS V13.01,2013-02-17 10:17:00,
2013-02-17 03:22:00,31.1,4.0,29.86,WSW,242,0.0,0.0,31,0.00,,---,0.00,VWS V13.01,2013-02-17 10:22:00,
2013-02-17 03:27:00,30.4,3.4,29.86,WSW,242,0.0,0.0,31,0.00,,---,0.00,VWS V13.01,2013-02-17 10:27:00,
2013-02-17 03:32:00,30.4,3.4,29.86,WSW,242,0.0,0.0,31,0.00,,---,0.00,VWS V13.01,2013-02-17 10:32:00,
2013-02-17 03:37:00,30.9,3.8,29.86,WSW,242,0.0,0.0,31,0.00,,---,0.00,VWS V13.01,2013-02-17 10:37:00,
2013-02-17 03:42:00,30.2,3.2,29.86,WSW,242,0.0,0.0,31,0.00,,---,0.00,VWS V13.01,2013-02-17 10:42:00,
2013-02-17 03:47:00,29.8,3.6,29.86,WSW,242,0.0,0.0,32,0.00,,---,0.00,VWS V13.01,2013-02-17 10:47:00,
2013-02-17 03:52:00,29.8,3.6,29.86,WSW,242,0.0,0.0,32,0.00,,---,0.00,VWS V13.01,2013-02-17 10:52:00,
2013-02-17 03:58:00,29.5,3.3,29.86,WSW,242,0.0,0.0,32,0.00,,---,0.00,VWS V13.01,2013-02-17 10:58:00,
2013-02-17 04:03:00,29.5,3.3,29.86,WSW,242,0.0,0.0,32,0.00,,---,0.00,VWS V13.01,2013-02-17 11:03:00,
2013-02-17 04:08:00,30.0,3.8,29.86,WSW,242,0.0,0.0,32,0.00,,---,0.00,VWS V13.01,2013-02-17 11:08:00,
2013-02-17 04:13:00,30.0,3.8,29.86,WSW,242,0.0,0.0,32,0.00,,---,0.00,VWS V13.01,2013-02-17 11:13:00,
2013-02-17 04:18:00,29.8,3.6,29.83,WSW,242,0.0,0.0,32,0.00,,---,0.00,VWS V13.01,2013-02-17 11:18:00,
2013-02-17 04:23:00,30.0,3.8,29.83,WSW,242,0.0,0.0,32,0.00,,---,0.00,VWS V13.01,2013-02-17 11:23:00,
2013-02-17 04:28:00,29.8,3.6,29.83,WSW,242,0.0,0.0,32,0.00,,---,0.00,VWS V13.01,2013-02-17 11:28:00,
2013-02-17 04:33:00,29.5,3.3,29.83,WSW,242,0.0,0.0,32,0.00,,---,0.00,VWS V13.01,2013-02-17 11:33:00,
2013-02-17 04:38:00,29.7,3.4,29.83,WSW,242,0.0,0.0,32,0.00,,---,0.00,VWS V13.01,2013-02-17 11:38:00,
2013-02-17 04:44:00,29.5,3.3,29.83,WSW,242,0.0,0.0,32,0.00,,---,0.00,VWS V13.01,2013-02-17 11:44:00,
2013-02-17 04:49:00,29.7,3.4,29.83,WSW,242,0.0,0.0,32,0.00,,---,0.00,VWS V13.01,2013-02-17 11:49:00,
2013-02-17 04:54:00,29.5,3.3,29.83,WSW,242,0.0,0.0,32,0.00,,---,0.00,VWS V13.01,2013-02-17 11:54:00,
2013-02-17 04:59:00,29.3,3.8,29.83,WSW,242,0.0,0.0,33,0.00,,---,0.00,VWS V13.01,2013-02-17 11:59:00,
2013-02-17 05:04:00,28.9,3.5,29.83,WSW,242,0.0,0.0,33,0.00,,---,0.00,VWS V13.01,2013-02-17 12:04:00,
2013-02-17 05:09:00,28.4,3.0,29.83,WSW,242,0.0,0.0,33,0.00,,---,0.00,VWS V13.01,2013-02-17 12:09:00,
2013-02-17 05:14:00,28.2,2.8,29.83,WSW,242,0.0,0.0,33,0.00,,---,0.00,VWS V13.01,2013-02-17 12:14:00,
2013-02-17 05:20:00,27.9,2.5,29.83,WSW,242,0.0,0.0,33,0.00,,---,0.00,VWS V13.01,2013-02-17 12:20:00,
2013-02-17 05:25:00,28.0,3.3,29.83,WSW,242,0.0,0.0,34,0.00,,---,0.00,VWS V13.01,2013-02-17 12:25:00,
2013-02-17 05:30:00,28.0,3.3,29.83,WSW,242,0.0,0.0,34,0.00,,---,0.00,VWS V13.01,2013-02-17 12:30:00,
2013-02-17 05:35:00,28.0,3.3,29.83,WSW,242,0.0,0.0,34,0.00,,---,0.00,VWS V13.01,2013-02-17 12:35:00,
2013-02-17 05:40:00,27.9,3.2,29.83,WSW,242,0.0,0.0,34,0.00,,---,0.00,VWS V13.01,2013-02-17 12:40:00,
2013-02-17 05:45:00,28.0,3.9,29.83,WSW,242,0.0,0.0,35,0.00,,---,0.00,VWS V13.01,2013-02-17 12:45:00,
2013-02-17 05:50:00,28.2,4.1,29.83,WSW,242,0.0,0.0,35,0.00,,---,0.00,VWS V13.01,2013-02-17 12:50:00,
2013-02-17 05:56:00,27.9,3.8,29.83,WSW,242,0.0,0.0,35,0.00,,---,0.00,VWS V13.01,2013-02-17 12:56:00,
2013-02-17 06:01:00,27.7,3.6,29.83,WSW,242,0.0,0.0,35,0.00,,---,0.00,VWS V13.01,2013-02-17 13:01:00,
2013-02-17 06:06:00,27.3,3.9,29.83,WSW,242,0.0,0.0,36,0.00,,---,0.00,VWS V13.01,2013-02-17 13:06:00,
2013-02-17 06:11:00,27.5,4.1,29.83,WSW,242,0.0,0.0,36,0.00,,---,0.00,VWS V13.01,2013-02-17 13:11:00,
2013-02-17 06:16:00,27.7,4.2,29.83,WSW,242,0.0,0.0,36,0.00,,---,0.00,VWS V13.01,2013-02-17 13:16:00,
2013-02-17 06:21:00,27.5,4.1,29.83,WSW,242,0.0,0.0,36,0.00,,---,0.00,VWS V13.01,2013-02-17 13:21:00,
2013-02-17 06:26:00,27.5,4.1,29.83,WSW,242,0.0,0.0,36,0.00,,---,0.00,VWS V13.01,2013-02-17 13:26:00,
2013-02-17 06:31:00,27.7,4.2,29.83,WSW,242,0.0,0.0,36,0.00,,---,0.00,VWS V13.01,2013-02-17 13:31:00,
2013-02-17 06:36:00,27.7,4.2,29.83,WSW,242,0.0,0.0,36,0.00,,---,0.00,VWS V13.01,2013-02-17 13:36:00,
2013-02-17 06:41:00,27.7,4.2,29.83,WSW,242,0.0,0.0,36,0.00,,---,0.00,VWS V13.01,2013-02-17 13:41:00,
2013-02-17 06:47:00,27.7,4.2,29.83,WSW,242,0.0,0.0,36,0.00,,---,0.00,VWS V13.01,2013-02-17 13:47:00,
2013-02-17 06:52:00,27.5,4.1,29.83,WSW,242,0.0,0.0,36,0.00,,---,0.00,VWS V13.01,2013-02-17 13:52:00,
2013-02-17 06:57:00,27.5,4.1,29.83,WSW,242,0.0,0.0,36,0.00,,---,0.00,VWS V13.01,2013-02-17 13:57:00,
2013-02-17 07:02:00,27.5,4.1,29.83,WSW,242,0.0,0.0,36,0.00,,---,0.00,VWS V13.01,2013-02-17 14:02:00,
2013-02-17 07:07:00,27.3,3.9,29.83,WSW,242,0.0,0.0,36,0.00,,---,0.00,VWS V13.01,2013-02-17 14:07:00,
2013-02-17 07:12:00,28.0,4.5,29.83,WSW,242,0.0,0.0,36,0.00,,---,0.00,VWS V13.01,2013-02-17 14:12:00,
2013-02-17 07:17:00,27.9,4.4,29.83,WSW,242,0.0,0.0,36,0.00,,---,0.00,VWS V13.01,2013-02-17 14:17:00,
2013-02-17 07:23:00,28.0,4.5,29.83,WSW,242,0.0,0.0,36,0.00,,---,0.00,VWS V13.01,2013-02-17 14:23:00,
2013-02-17 07:28:00,28.6,4.4,29.83,WSW,242,0.0,0.0,35,0.00,,---,0.00,VWS V13.01,2013-02-17 14:28:00,
2013-02-17 07:33:00,28.8,4.6,29.83,WSW,242,0.0,0.0,35,0.00,,---,0.00,VWS V13.01,2013-02-17 14:33:00,
2013-02-17 07:38:00,28.9,5.3,29.83,WSW,242,0.0,0.0,36,0.00,,---,0.00,VWS V13.01,2013-02-17 14:38:00,
2013-02-17 07:43:00,29.3,5.7,29.83,WSW,242,0.0,0.0,36,0.00,,---,0.00,VWS V13.01,2013-02-17 14:43:00,
2013-02-17 07:48:00,29.7,6.0,29.83,WSW,242,0.0,0.0,36,0.00,,---,0.00,VWS V13.01,2013-02-17 14:48:00,
2013-02-17 07:53:00,30.6,8.0,29.83,WSW,242,0.0,0.0,38,0.00,,---,0.00,VWS V13.01,2013-02-17 14:53:00,
2013-02-17 07:58:00,30.9,8.9,29.83,WSW,242,0.0,0.0,39,0.00,,---,0.00,VWS V13.01,2013-02-17 14:58:00,
2013-02-17 08:03:00,31.1,9.6,29.83,WSW,242,0.0,0.0,40,0.00,,---,0.00,VWS V13.01,2013-02-17 15:03:00,
2013-02-17 08:08:00,31.1,9.6,29.83,WSW,242,0.0,0.0,40,0.00,,---,0.00,VWS V13.01,2013-02-17 15:08:00,
2013-02-17 08:14:00,31.3,9.8,29.83,WSW,242,0.0,0.0,40,0.00,,---,0.00,VWS V13.01,2013-02-17 15:14:00,
2013-02-17 08:19:00,31.8,10.3,29.83,WSW,242,0.0,0.0,40,0.00,,---,0.00,VWS V13.01,2013-02-17 15:19:00,
2013-02-17 08:24:00,32.2,9.4,29.83,WSW,242,0.0,0.0,38,0.00,,---,0.00,VWS V13.01,2013-02-17 15:24:00,
2013-02-17 08:29:00,32.7,9.9,29.83,WSW,242,0.0,0.0,38,0.00,,---,0.00,VWS V13.01,2013-02-17 15:29:00,
2013-02-17 08:34:00,33.3,9.8,29.83,WSW,242,0.0,0.0,37,0.00,,---,0.00,VWS V13.01,2013-02-17 15:34:00,
2013-02-17 08:39:00,34.0,10.5,29.83,WSW,242,0.0,0.0,37,0.00,,---,0.00,VWS V13.01,2013-02-17 15:39:00,
2013-02-17 08:44:00,34.5,10.9,29.83,WSW,242,0.0,0.0,37,0.00,,---,0.00,VWS V13.01,2013-02-17 15:44:00,
2013-02-17 08:50:00,34.7,10.5,29.83,North,357,2.2,2.2,36,0.00,,---,0.00,VWS V13.01,2013-02-17 15:50:00,
2013-02-17 08:55:00,35.6,11.3,29.83,NW,313,0.0,2.2,36,0.00,,---,0.00,VWS V13.01,2013-02-17 15:55:00,
2013-02-17 09:00:00,36.1,11.8,29.83,NW,313,0.0,2.2,36,0.00,,---,0.00,VWS V13.01,2013-02-17 16:00:00,
2013-02-17 09:05:00,36.5,11.5,29.83,NW,313,0.0,0.0,35,0.00,,---,0.00,VWS V13.01,2013-02-17 16:05:00,
2013-02-17 09:10:00,36.9,11.8,29.83,NW,313,0.0,0.0,35,0.00,,---,0.00,VWS V13.01,2013-02-17 16:10:00,
2013-02-17 09:15:00,37.0,11.3,29.83,NW,322,0.0,0.0,34,0.00,,---,0.00,VWS V13.01,2013-02-17 16:15:00,
2013-02-17 09:20:00,37.9,12.1,29.83,ENE,62,0.0,0.0,34,0.00,,---,0.00,VWS V13.01,2013-02-17 16:20:00,
2013-02-17 09:25:00,38.3,11.7,29.83,ENE,62,0.0,0.0,33,0.00,,---,0.00,VWS V13.01,2013-02-17 16:25:00,
2013-02-17 09:30:00,38.8,12.2,29.83,NNW,335,0.0,0.0,33,0.00,,---,0.00,VWS V13.01,2013-02-17 16:30:00,
2013-02-17 09:36:00,39.6,12.9,29.83,North,357,0.0,0.0,33,0.00,,---,0.00,VWS V13.01,2013-02-17 16:36:00,
2013-02-17 09:41:00,39.9,13.2,29.83,NE,47,0.0,0.0,33,0.00,,---,0.00,VWS V13.01,2013-02-17 16:41:00,
2013-02-17 09:46:00,41.0,13.4,29.83,NE,50,0.0,0.0,32,0.00,,---,0.00,VWS V13.01,2013-02-17 16:46:00,
2013-02-17 09:51:00,41.5,13.9,29.83,NNE,12,0.0,0.0,32,0.00,,---,0.00,VWS V13.01,2013-02-17 16:51:00,
2013-02-17 09:56:00,42.6,14.8,29.83,NNE,24,0.0,0.0,32,0.00,,---,0.00,VWS V13.01,2013-02-17 16:56:00,
2013-02-17 10:01:00,43.0,14.4,29.83,ENE,70,0.0,0.0,31,0.00,,---,0.00,VWS V13.01,2013-02-17 17:01:00,
2013-02-17 10:06:00,43.7,15.1,29.83,ENE,61,0.0,0.0,31,0.00,,---,0.00,VWS V13.01,2013-02-17 17:06:00,
2013-02-17 10:12:00,44.1,15.4,29.83,ENE,70,0.0,0.0,31,0.00,,---,0.00,VWS V13.01,2013-02-17 17:12:00,
2013-02-17 10:17:00,45.0,15.4,29.83,ENE,72,0.0,0.0,30,0.00,,---,0.00,VWS V13.01,2013-02-17 17:17:00,
2013-02-17 10:22:00,45.7,16.0,29.83,ESE,109,0.0,3.1,30,0.00,,---,0.00,VWS V13.01,2013-02-17 17:22:00,
2013-02-17 10:27:00,46.4,15.9,29.83,SSE,160,3.1,4.0,29,0.00,,---,0.00,VWS V13.01,2013-02-17 17:27:00,
2013-02-17 10:32:00,46.9,16.4,29.83,ESE,104,0.0,4.9,29,0.00,,---,0.00,VWS V13.01,2013-02-17 17:32:00,
2013-02-17 10:37:00,47.3,16.7,29.83,ESE,106,0.0,4.9,29,0.00,,---,0.00,VWS V13.01,2013-02-17 17:37:00,
2013-02-17 10:42:00,48.0,17.3,29.83,ESE,107,0.0,4.9,29,0.00,,---,0.00,VWS V13.01,2013-02-17 17:42:00,
2013-02-17 10:47:00,48.7,17.1,29.83,ESE,107,0.0,4.9,28,0.00,,---,0.00,VWS V13.01,2013-02-17 17:47:00,
2013-02-17 10:53:00,49.5,17.7,29.83,East,101,0.0,4.9,28,0.00,,---,0.00,VWS V13.01,2013-02-17 17:53:00,
2013-02-17 10:58:00,50.2,17.5,29.83,East,101,0.0,4.9,27,0.00,,---,0.00,VWS V13.01,2013-02-17 17:58:00,
2013-02-17 11:03:00,51.1,18.3,29.80,East,83,0.0,0.0,27,0.00,,---,0.00,VWS V13.01,2013-02-17 18:03:00,
2013-02-17 11:08:00,51.6,18.8,29.80,ENE,73,3.6,4.0,27,0.00,,---,0.00,VWS V13.01,2013-02-17 18:08:00,
2013-02-17 11:13:00,52.7,18.8,29.80,NNE,12,0.0,4.0,26,0.00,,---,0.00,VWS V13.01,2013-02-17 18:13:00,
2013-02-17 11:18:00,53.1,19.1,29.80,ESE,116,2.7,4.0,26,0.00,,---,0.00,VWS V13.01,2013-02-17 18:18:00,
2013-02-17 11:23:00,54.0,17.0,29.80,NNW,333,0.0,4.0,23,0.00,,---,0.00,VWS V13.01,2013-02-17 18:23:00,
2013-02-17 11:28:00,54.5,20.3,29.80,ESE,105,0.0,4.0,26,0.00,,---,0.00,VWS V13.01,2013-02-17 18:28:00,
2013-02-17 11:33:00,55.2,21.0,29.80,ENE,68,2.7,4.5,26,0.00,,---,0.00,VWS V13.01,2013-02-17 18:33:00,
2013-02-17 11:39:00,55.8,20.5,29.80,East,86,2.7,4.5,25,0.00,,---,0.00,VWS V13.01,2013-02-17 18:39:00,
2013-02-17 11:44:00,56.7,18.3,29.80,NE,55,0.0,5.4,22,0.00,,---,0.00,VWS V13.01,2013-02-17 18:44:00,
2013-02-17 11:49:00,57.4,20.9,29.80,NE,49,3.1,5.4,24,0.00,,---,0.00,VWS V13.01,2013-02-17 18:49:00,
2013-02-17 11:54:00,57.6,19.0,29.80,NE,39,0.0,5.4,22,0.00,,---,0.00,VWS V13.01,2013-02-17 18:54:00,
2013-02-17 12:00:00,58.5,13.8,29.77,NNW,332,4.9,5.4,17,0.00,,---,0.00,VWS V13.01,2013-02-17 19:00:00,
2013-02-17 12:06:00,59.4,17.1,29.77,NW,309,0.0,0.0,19,0.00,,---,0.00,VWS V13.01,2013-02-17 19:06:00,
2013-02-17 12:11:00,60.4,15.4,29.77,NNE,20,3.6,4.9,17,0.00,,---,0.00,VWS V13.01,2013-02-17 19:11:00,
2013-02-17 12:16:00,60.8,14.4,29.77,West,277,0.0,5.4,16,0.00,,---,0.00,VWS V13.01,2013-02-17 19:16:00,
2013-02-17 12:21:00,61.0,18.5,29.77,SSW,205,0.0,5.4,19,0.00,,---,0.00,VWS V13.01,2013-02-17 19:21:00,
2013-02-17 12:27:00,61.3,18.8,29.77,WSW,255,0.0,5.4,19,0.00,,---,0.00,VWS V13.01,2013-02-17 19:27:00,
2013-02-17 12:32:00,62.4,15.7,29.77,WSW,249,2.7,6.3,16,0.00,,---,0.00,VWS V13.01,2013-02-17 19:32:00,
2013-02-17 12:37:00,63.0,16.1,29.77,SSW,207,3.1,6.3,16,0.00,,---,0.00,VWS V13.01,2013-02-17 19:37:00,
2013-02-17 12:42:00,64.8,12.8,29.77,WSW,254,5.4,14.1,13,0.00,,---,0.00,VWS V13.01,2013-02-17 19:42:00,
2013-02-17 12:47:00,65.7,13.5,29.74,SW,225,13.2,14.1,13,0.00,,---,0.00,VWS V13.01,2013-02-17 19:47:00,
2013-02-17 12:52:00,65.8,7.8,29.74,SW,221,5.4,14.1,10,0.00,,---,0.00,VWS V13.01,2013-02-17 19:52:00,
2013-02-17 12:57:00,65.8,13.6,29.74,WSW,242,4.0,14.1,13,0.00,,---,0.00,VWS V13.01,2013-02-17 19:57:00,
2013-02-17 13:02:00,67.1,12.8,29.74,West,261,10.5,10.5,12,0.00,,---,0.00,VWS V13.01,2013-02-17 20:02:00,
2013-02-17 13:08:00,67.5,9.0,29.74,South,191,14.5,14.5,10,0.00,,---,0.00,VWS V13.01,2013-02-17 20:08:00,
2013-02-17 13:13:00,68.0,9.4,29.74,SW,229,12.3,14.5,10,0.00,,---,0.00,VWS V13.01,2013-02-17 20:13:00,
2013-02-17 13:18:00,68.0,9.4,29.71,South,174,12.3,14.5,10,0.00,,---,0.00,VWS V13.01,2013-02-17 20:18:00,
2013-02-17 13:23:00,68.4,9.7,29.71,NW,323,5.8,15.0,10,0.00,,---,0.00,VWS V13.01,2013-02-17 20:23:00,
2013-02-17 13:28:00,68.0,9.4,29.71,WNW,302,12.8,15.0,10,0.00,,---,0.00,VWS V13.01,2013-02-17 20:28:00,
2013-02-17 13:33:00,68.5,9.8,29.71,WNW,289,7.6,15.0,10,0.00,,---,0.00,VWS V13.01,2013-02-17 20:33:00,
2013-02-17 13:38:00,68.4,9.7,29.71,West,274,17.0,17.0,10,0.00,,---,0.00,VWS V13.01,2013-02-17 20:38:00,
2013-02-17 13:43:00,68.4,9.7,29.71,WSW,248,13.2,17.4,10,0.00,,---,0.00,VWS V13.01,2013-02-17 20:43:00,
2013-02-17 13:48:00,68.0,9.4,29.71,WNW,286,11.0,17.4,10,0.00,,---,0.00,VWS V13.01,2013-02-17 20:48:00,
2013-02-17 13:54:00,68.2,9.6,29.71,WNW,290,16.3,17.4,10,0.00,,---,0.00,VWS V13.01,2013-02-17 20:54:00,
2013-02-17 13:59:00,67.6,9.1,29.71,West,270,8.7,17.4,10,0.00,,---,0.00,VWS V13.01,2013-02-17 20:59:00,
2013-02-17 14:04:00,68.4,9.7,29.71,WNW,283,12.8,15.4,10,0.00,,---,0.00,VWS V13.01,2013-02-17 21:04:00,
2013-02-17 14:09:00,68.4,9.7,29.71,West,269,15.0,15.4,10,0.00,,---,0.00,VWS V13.01,2013-02-17 21:09:00,
2013-02-17 14:14:00,68.2,9.6,29.71,WSW,258,10.5,16.3,10,0.00,,---,0.00,VWS V13.01,2013-02-17 21:14:00,
2013-02-17 14:19:00,68.0,9.4,29.71,WNW,290,10.1,16.3,10,0.00,,---,0.00,VWS V13.01,2013-02-17 21:19:00,
2013-02-17 14:24:00,68.5,9.8,29.71,WSW,251,7.6,17.4,10,0.00,,---,0.00,VWS V13.01,2013-02-17 21:24:00,
2013-02-17 14:29:00,68.5,9.8,29.71,West,264,8.1,23.7,10,0.00,,---,0.00,VWS V13.01,2013-02-17 21:29:00,
2013-02-17 14:34:00,69.1,10.3,29.71,West,262,19.7,23.7,10,0.00,,---,0.00,VWS V13.01,2013-02-17 21:34:00,
2013-02-17 14:40:00,68.2,9.6,29.71,West,280,16.8,23.7,10,0.00,,---,0.00,VWS V13.01,2013-02-17 21:40:00,
2013-02-17 14:45:00,68.7,10.0,29.68,West,269,13.2,23.7,10,0.00,,---,0.00,VWS V13.01,2013-02-17 21:45:00,
2013-02-17 14:50:00,68.4,9.7,29.68,West,275,15.4,23.7,10,0.00,,---,0.00,VWS V13.01,2013-02-17 21:50:00,
2013-02-17 14:55:00,67.8,9.3,29.68,West,269,13.2,23.7,10,0.00,,---,0.00,VWS V13.01,2013-02-17 21:55:00,
2013-02-17 15:00:00,68.4,9.7,29.68,West,271,11.0,23.7,10,0.00,,---,0.00,VWS V13.01,2013-02-17 22:00:00,
2013-02-17 15:05:00,68.9,10.1,29.68,West,260,14.5,17.4,10,0.00,,---,0.00,VWS V13.01,2013-02-17 22:05:00,
2013-02-17 15:11:00,68.0,9.4,29.68,West,266,15.4,21.0,10,0.00,,---,0.00,VWS V13.01,2013-02-17 22:11:00,
2013-02-17 15:16:00,67.5,9.0,29.68,West,264,8.7,22.4,10,0.00,,---,0.00,VWS V13.01,2013-02-17 22:16:00,
2013-02-17 15:21:00,68.2,9.6,29.68,WNW,298,15.4,22.4,10,0.00,,---,0.00,VWS V13.01,2013-02-17 22:21:00,
2013-02-17 15:26:00,67.6,9.1,29.68,West,263,17.0,22.4,10,0.00,,---,0.00,VWS V13.01,2013-02-17 22:26:00,
2013-02-17 15:31:00,67.3,8.9,29.68,West,273,13.2,22.4,10,0.00,,---,0.00,VWS V13.01,2013-02-17 22:31:00,
2013-02-17 15:36:00,67.5,9.0,29.68,WSW,249,15.0,22.4,10,0.00,,---,0.00,VWS V13.01,2013-02-17 22:36:00,
2013-02-17 15:41:00,67.5,9.0,29.68,West,264,16.3,22.4,10,0.00,,---,0.00,VWS V13.01,2013-02-17 22:41:00,
2013-02-17 15:46:00,67.5,9.0,29.68,West,267,12.8,22.4,10,0.00,,---,0.00,VWS V13.01,2013-02-17 22:46:00,
2013-02-17 15:52:00,66.9,8.6,29.68,WSW,251,12.8,22.4,10,0.00,,---,0.00,VWS V13.01,2013-02-17 22:52:00,
2013-02-17 15:57:00,67.5,9.0,29.68,WNW,283,15.4,22.4,10,0.00,,---,0.00,VWS V13.01,2013-02-17 22:57:00,
2013-02-17 16:02:00,66.9,8.6,29.68,West,260,16.3,22.8,10,0.00,,---,0.00,VWS V13.01,2013-02-17 23:02:00,
2013-02-17 16:07:00,66.7,8.5,29.68,West,260,11.9,22.8,10,0.00,,---,0.00,VWS V13.01,2013-02-17 23:07:00,
2013-02-17 16:12:00,66.9,8.6,29.68,WSW,241,12.3,22.8,10,0.00,,---,0.00,VWS V13.01,2013-02-17 23:12:00,
2013-02-17 16:17:00,67.1,8.7,29.68,WNW,290,15.0,22.8,10,0.00,,---,0.00,VWS V13.01,2013-02-17 23:17:00,
2013-02-17 16:22:00,66.9,8.6,29.68,WSW,239,13.2,22.8,10,0.00,,---,0.00,VWS V13.01,2013-02-17 23:22:00,
2013-02-17 16:28:00,66.6,8.3,29.68,WNW,286,13.2,22.8,10,0.00,,---,0.00,VWS V13.01,2013-02-17 23:28:00,
2013-02-17 16:33:00,66.4,8.2,29.68,West,265,17.4,22.8,10,0.00,,---,0.00,VWS V13.01,2013-02-17 23:33:00,
2013-02-17 16:38:00,66.4,8.2,29.68,West,271,19.7,22.8,10,0.00,,---,0.00,VWS V13.01,2013-02-17 23:38:00,
2013-02-17 16:43:00,65.8,2.9,29.68,West,271,11.0,24.6,8,0.00,,---,0.00,VWS V13.01,2013-02-17 23:43:00,
2013-02-17 16:48:00,65.7,2.8,29.68,West,270,12.8,24.6,8,0.00,,---,0.00,VWS V13.01,2013-02-17 23:48:00,
2013-02-17 16:53:00,65.5,2.6,29.68,West,271,16.8,24.6,8,0.00,,---,0.00,VWS V13.01,2013-02-17 23:53:00,
2013-02-17 16:58:00,65.1,2.4,29.68,West,270,13.2,24.6,8,0.00,,---,0.00,VWS V13.01,2013-02-17 23:58:00,
2013-02-17 17:03:00,65.1,2.4,29.68,WSW,242,15.0,21.9,8,0.00,,---,0.00,VWS V13.01,2013-02-18 00:03:00,
2013-02-17 17:08:00,64.8,2.1,29.68,WNW,295,21.5,21.9,8,0.00,,---,0.00,VWS V13.01,2013-02-18 00:08:00,
2013-02-17 17:14:00,64.6,2.0,29.68,WSW,250,17.4,23.3,8,0.00,,---,0.00,VWS V13.01,2013-02-18 00:14:00,
2013-02-17 17:24:00,63.9,1.4,29.68,WNW,288,17.4,23.3,8,0.00,,---,0.00,VWS V13.01,2013-02-18 00:24:00,
2013-02-17 17:29:00,63.9,1.4,29.68,WNW,284,16.3,25.1,8,0.00,,---,0.00,VWS V13.01,2013-02-18 00:29:00,
2013-02-17 17:34:00,63.5,1.1,29.68,West,262,11.9,25.1,8,0.00,,---,0.00,VWS V13.01,2013-02-18 00:34:00,
2013-02-17 17:39:00,63.0,0.7,29.68,West,276,13.2,25.1,8,0.00,,---,0.00,VWS V13.01,2013-02-18 00:39:00,
2013-02-17 17:44:00,62.6,0.5,29.68,West,279,11.9,25.1,8,0.00,,---,0.00,VWS V13.01,2013-02-18 00:44:00,
2013-02-17 17:49:00,62.1,2.6,29.71,West,266,11.9,25.1,9,0.00,,---,0.00,VWS V13.01,2013-02-18 00:49:00,
2013-02-17 17:54:00,61.5,2.2,29.71,WNW,303,15.4,25.1,9,0.00,,---,0.00,VWS V13.01,2013-02-18 00:54:00,
2013-02-17 17:59:00,61.3,2.0,29.71,West,268,15.9,25.1,9,0.00,,---,0.00,VWS V13.01,2013-02-18 00:59:00,
2013-02-17 18:05:00,61.0,1.8,29.71,WNW,284,13.2,16.8,9,0.00,,---,0.00,VWS V13.01,2013-02-18 01:05:00,
2013-02-17 18:10:00,60.8,1.6,29.71,WSW,249,12.3,22.4,9,0.00,,---,0.00,VWS V13.01,2013-02-18 01:10:00,
2013-02-17 18:15:00,60.4,1.4,29.71,WSW,246,11.0,22.4,9,0.00,,---,0.00,VWS V13.01,2013-02-18 01:15:00,
2013-02-17 18:20:00,60.3,1.2,29.71,West,259,13.6,22.4,9,0.00,,---,0.00,VWS V13.01,2013-02-18 01:20:00,
2013-02-17 18:25:00,60.3,1.2,29.71,West,272,8.1,22.4,9,0.00,,---,0.00,VWS V13.01,2013-02-18 01:25:00,
2013-02-17 18:30:00,60.1,1.1,29.71,West,260,10.5,22.4,9,0.00,,---,0.00,VWS V13.01,2013-02-18 01:30:00,
2013-02-17 18:35:00,60.1,1.1,29.71,West,273,15.0,22.4,9,0.00,,---,0.00,VWS V13.01,2013-02-18 01:35:00,
2013-02-17 18:40:00,59.9,0.9,29.71,West,265,14.5,22.4,9,0.00,,---,0.00,VWS V13.01,2013-02-18 01:40:00,
2013-02-17 18:45:00,59.7,0.8,29.71,West,264,9.2,22.4,9,0.00,,---,0.00,VWS V13.01,2013-02-18 01:45:00,
2013-02-17 18:51:00,59.5,0.7,29.71,WSW,244,13.2,22.4,9,0.00,,---,0.00,VWS V13.01,2013-02-18 01:51:00,
2013-02-17 18:56:00,59.5,0.7,29.71,West,265,15.4,22.4,9,0.00,,---,0.00,VWS V13.01,2013-02-18 01:56:00,
2013-02-17 19:01:00,59.2,0.4,29.71,West,274,11.0,22.4,9,0.00,,---,0.00,VWS V13.01,2013-02-18 02:01:00,
2013-02-17 19:06:00,59.0,0.3,29.71,WNW,285,6.3,17.9,9,0.00,,---,0.00,VWS V13.01,2013-02-18 02:06:00,
2013-02-17 19:11:00,58.8,0.1,29.71,WSW,250,8.1,17.9,9,0.00,,---,0.00,VWS V13.01,2013-02-18 02:11:00,
2013-02-17 19:16:00,58.6,0.0,29.74,WSW,251,10.5,17.9,9,0.00,,---,0.00,VWS V13.01,2013-02-18 02:16:00,
2013-02-17 19:21:00,58.3,-0.3,29.74,West,275,5.8,17.9,9,0.00,,---,0.00,VWS V13.01,2013-02-18 02:21:00,
2013-02-17 19:27:00,57.9,-0.6,29.74,SSE,161,2.7,17.9,9,0.00,,---,0.00,VWS V13.01,2013-02-18 02:27:00,
2013-02-17 19:32:00,57.7,-0.7,29.74,West,276,6.3,17.9,9,0.00,,---,0.00,VWS V13.01,2013-02-18 02:32:00,
2013-02-17 19:37:00,57.6,-0.8,29.74,WSW,250,2.7,17.9,9,0.00,,---,0.00,VWS V13.01,2013-02-18 02:37:00,
2013-02-17 19:42:00,56.8,0.9,29.74,SE,126,0.0,17.9,10,0.00,,---,0.00,VWS V13.01,2013-02-18 02:42:00,
2013-02-17 19:47:00,56.5,0.6,29.74,South,171,3.1,17.9,10,0.00,,---,0.00,VWS V13.01,2013-02-18 02:47:00,
2013-02-17 19:52:00,56.1,0.3,29.74,SSW,210,2.7,17.9,10,0.00,,---,0.00,VWS V13.01,2013-02-18 02:52:00,
2013-02-17 19:57:00,56.5,0.6,29.74,SW,230,0.0,17.9,10,0.00,,---,0.00,VWS V13.01,2013-02-18 02:57:00,
2013-02-17 20:02:00,56.1,0.3,29.74,West,264,6.3,7.6,10,0.00,,---,0.00,VWS V13.01,2013-02-18 03:02:00,
2013-02-17 20:07:00,56.7,0.7,29.74,SW,232,7.6,8.7,10,0.00,,---,0.00,VWS V13.01,2013-02-18 03:07:00,
2013-02-17 20:13:00,55.9,0.2,29.74,West,281,3.1,8.7,10,0.00,,---,0.00,VWS V13.01,2013-02-18 03:13:00,
2013-02-17 20:18:00,55.9,0.2,29.74,West,265,7.6,8.7,10,0.00,,---,0.00,VWS V13.01,2013-02-18 03:18:00,
2013-02-17 20:23:00,55.6,-0.1,29.74,WSW,253,5.4,8.7,10,0.00,,---,0.00,VWS V13.01,2013-02-18 03:23:00,
2013-02-17 20:28:00,55.4,-0.3,29.74,WSW,254,6.3,8.7,10,0.00,,---,0.00,VWS V13.01,2013-02-18 03:28:00,
2013-02-17 20:33:00,55.6,-0.1,29.74,WSW,247,8.3,13.2,10,0.00,,---,0.00,VWS V13.01,2013-02-18 03:33:00,
2013-02-17 20:39:00,55.9,0.2,29.74,SW,232,5.8,13.2,10,0.00,,---,0.00,VWS V13.01,2013-02-18 03:39:00,
2013-02-17 20:44:00,55.0,-0.5,29.74,West,262,4.9,13.2,10,0.00,,---,0.00,VWS V13.01,2013-02-18 03:44:00,
2013-02-17 20:49:00,54.7,-0.8,29.77,WSW,254,3.1,13.2,10,0.00,,---,0.00,VWS V13.01,2013-02-18 03:49:00,
2013-02-17 20:54:00,55.2,-0.4,29.77,WNW,287,12.3,13.2,10,0.00,,---,0.00,VWS V13.01,2013-02-18 03:54:00,
2013-02-17 20:59:00,55.6,-0.1,29.77,West,265,7.2,13.2,10,0.00,,---,0.00,VWS V13.01,2013-02-18 03:59:00,
2013-02-17 21:04:00,56.3,4.4,29.77,West,277,15.4,16.3,12,0.00,,---,0.00,VWS V13.01,2013-02-18 04:04:00,
2013-02-17 21:10:00,55.9,4.1,29.77,WNW,292,13.2,20.1,12,0.00,,---,0.00,VWS V13.01,2013-02-18 04:10:00,
2013-02-17 21:15:00,55.9,4.1,29.77,WSW,248,11.0,20.1,12,0.00,,---,0.00,VWS V13.01,2013-02-18 04:15:00,
2013-02-17 21:20:00,56.1,4.2,29.77,West,263,8.7,20.1,12,0.00,,---,0.00,VWS V13.01,2013-02-18 04:20:00,
2013-02-17 21:25:00,55.8,3.9,29.77,West,270,6.3,20.1,12,0.00,,---,0.00,VWS V13.01,2013-02-18 04:25:00,
2013-02-17 21:30:00,55.0,5.1,29.77,West,279,7.6,20.1,13,0.00,,---,0.00,VWS V13.01,2013-02-18 04:30:00,
2013-02-17 21:35:00,55.4,3.7,29.77,West,264,11.0,20.1,12,0.00,,---,0.00,VWS V13.01,2013-02-18 04:35:00,
2013-02-17 21:40:00,54.9,5.0,29.77,West,275,7.6,20.1,13,0.00,,---,0.00,VWS V13.01,2013-02-18 04:40:00,
2013-02-17 21:45:00,54.9,5.0,29.77,West,279,8.3,20.1,13,0.00,,---,0.00,VWS V13.01,2013-02-18 04:45:00,
2013-02-17 21:50:00,54.9,5.0,29.77,WNW,284,8.1,20.1,13,0.00,,---,0.00,VWS V13.01,2013-02-18 04:50:00,
2013-02-17 21:55:00,54.7,4.8,29.77,West,280,17.9,20.1,13,0.00,,---,0.00,VWS V13.01,2013-02-18 04:55:00,
2013-02-17 22:00:00,55.0,5.1,29.77,WSW,250,8.7,20.1,13,0.00,,---,0.00,VWS V13.01,2013-02-18 05:00:00,
2013-02-17 22:01:00,54.9,5.0,29.77,WNW,287,10.1,20.1,13,0.00,,---,0.00,VWS V13.01,2013-02-18 05:01:00,
2013-02-17 22:07:00,54.7,4.8,29.77,WSW,256,11.4,17.4,13,0.00,,---,0.00,VWS V13.01,2013-02-18 05:07:00,
2013-02-17 22:12:00,54.3,4.5,29.77,West,269,11.0,17.4,13,0.00,,---,0.00,VWS V13.01,2013-02-18 05:12:00,
2013-02-17 22:17:00,54.3,4.5,29.77,West,260,10.5,17.4,13,0.00,,---,0.00,VWS V13.01,2013-02-18 05:17:00,
2013-02-17 22:22:00,54.1,4.4,29.77,WNW,284,11.0,17.4,13,0.00,,---,0.00,VWS V13.01,2013-02-18 05:22:00,
2013-02-17 22:27:00,53.8,4.1,29.77,WSW,254,7.6,17.4,13,0.00,,---,0.00,VWS V13.01,2013-02-18 05:27:00,
2013-02-17 22:32:00,53.6,4.0,29.77,WSW,243,9.6,17.4,13,0.00,,---,0.00,VWS V13.01,2013-02-18 05:32:00,
2013-02-17 22:37:00,53.6,4.0,29.77,West,265,11.0,17.4,13,0.00,,---,0.00,VWS V13.01,2013-02-18 05:37:00,
2013-02-17 22:42:00,53.4,3.8,29.77,WSW,252,11.0,17.4,13,0.00,,---,0.00,VWS V13.01,2013-02-18 05:42:00,
2013-02-17 22:48:00,52.5,3.1,29.77,WSW,253,2.7,17.4,13,0.00,,---,0.00,VWS V13.01,2013-02-18 05:48:00,
2013-02-17 22:53:00,52.2,2.8,29.77,South,190,0.0,17.4,13,0.00,,---,0.00,VWS V13.01,2013-02-18 05:53:00,
2013-02-17 22:58:00,52.5,3.1,29.77,WSW,252,3.6,17.4,13,0.00,,---,0.00,VWS V13.01,2013-02-18 05:58:00,
2013-02-17 23:03:00,51.8,2.5,29.77,SE,125,3.6,3.6,13,0.00,,---,0.00,VWS V13.01,2013-02-18 06:03:00,
2013-02-17 23:08:00,51.4,3.8,29.77,SW,223,4.0,4.0,14,0.00,,---,0.00,VWS V13.01,2013-02-18 06:08:00,
2013-02-17 23:13:00,51.6,4.0,29.77,SSW,208,0.0,6.3,14,0.00,,---,0.00,VWS V13.01,2013-02-18 06:13:00,
2013-02-17 23:18:00,50.9,3.4,29.77,ESE,103,3.6,6.3,14,0.00,,---,0.00,VWS V13.01,2013-02-18 06:18:00,
2013-02-17 23:23:00,50.4,3.0,29.77,SE,128,5.4,6.3,14,0.00,,---,0.00,VWS V13.01,2013-02-18 06:23:00,
2013-02-17 23:28:00,49.6,2.4,29.77,SSE,152,3.1,6.3,14,0.00,,---,0.00,VWS V13.01,2013-02-18 06:28:00,
2013-02-17 23:34:00,49.1,2.0,29.77,SSE,162,3.1,6.3,14,0.00,,---,0.00,VWS V13.01,2013-02-18 06:34:00,
2013-02-17 23:39:00,48.6,1.5,29.77,East,91,0.0,6.3,14,0.00,,---,0.00,VWS V13.01,2013-02-18 06:39:00,
2013-02-17 23:44:00,48.2,1.2,29.77,SSE,154,0.0,6.3,14,0.00,,---,0.00,VWS V13.01,2013-02-18 06:44:00,
2013-02-17 23:49:00,48.4,1.4,29.80,ESE,106,3.6,6.7,14,0.00,,---,0.00,VWS V13.01,2013-02-18 06:49:00,
2013-02-17 23:54:00,48.7,1.7,29.80,East,100,5.4,6.7,14,0.00,,---,0.00,VWS V13.01,2013-02-18 06:54:00,
2013-02-17 23:59:00,48.4,1.4,29.80,SSE,155,3.6,6.7,14,0.00,,---,0.00,VWS V13.01,2013-02-18 06:59:00,